Newton, KS

3:42 PM CST on December 10, 2019 (GMT -0600)
Newton City County

Weather History for KEWK - October, 2019

Change the Weather History Date:

Sunday, October 13, 2019

  Actual Average Record
Temperature  
Mean Temperature 54 °F -  
Max Temperature 70 °F 66 °F 82 °F (2015)
Min Temperature 39 °F 45 °F 35 °F (2002)
Degree Days  
Heating Degree Days 10    
Growing Degree Days 4 (Base 50)    
Moisture  
Dew Point 34 °F    
Average Humidity 52    
Maximum Humidity 71    
Minimum Humidity 30    
Precipitation  
Precipitation 0.00 in - - ()
Sea Level Pressure  
Sea Level Pressure 29.96 in    
Wind  
Wind Speed 6 mph (South)    
Max Wind Speed 9 mph    
Max Gust Speed -    
Visibility 10 miles    
Events      
Averages and records for this station are not official NWS values.
T = Trace of Precipitation, MM = Missing Value Source: NWS Daily Summary

Daily Weather History Graph

Daily Weather History Graph

Search for Another Location

Airport or City:

Astronomy

Oct. 13, 2019 Rise Set
Actual Time 7:35 AM CDT 6:54 PM CDT
Civil Twilight 7:09 AM CDT 7:20 PM CDT
Nautical Twilight 6:38 AM CDT 7:51 PM CDT
Astronomical Twilight 6:08 AM CDT 8:21 PM CDT
Moon 7:16 PM CDT (10/13) 7:12 AM CDT (10/13)
Length of Visible Light 12h 11m
Length of Day
11h 18m
Full, 100% of the Moon is Illuminated
Oct 13
Full
Oct 13
Full
Oct 21
Last Quarter
Oct 27
New
Nov 4
First Quarter

Hourly Weather History & Observations

Time (CDT) Temp. Windchill Dew Point Humidity Pressure Visibility Wind Dir Wind Speed Gust Speed Precip Events Conditions
12:56 AM 46.0 °F 41.9 °F 30.0 °F 54% 29.94 in 10.0 mi SW 8.1 mph - N/A   Clear
2:56 AM 41.0 °F 35.2 °F 30.0 °F 65% 29.92 in 10.0 mi South 9.2 mph - N/A   Clear
3:56 AM 39.9 °F 34.5 °F 30.0 °F 68% 29.91 in 10.0 mi SSW 8.1 mph - N/A   Clear
4:56 AM 41.0 °F 35.8 °F 30.0 °F 65% 29.91 in 10.0 mi SSW 8.1 mph - N/A   Clear
5:56 AM 39.0 °F 34.8 °F 30.0 °F 70% 29.93 in 10.0 mi SSW 5.8 mph - N/A   Clear
6:56 AM 39.9 °F 36.7 °F 28.9 °F 65% 29.94 in 10.0 mi SSW 4.6 mph - N/A   Clear
7:56 AM 39.0 °F - 28.9 °F 67% 29.96 in 10.0 mi Calm Calm - N/A   Clear
8:56 AM 44.1 °F - 32.0 °F 63% 29.98 in 10.0 mi Calm Calm - N/A   Clear
9:56 AM 50.0 °F - 32.0 °F 50% 29.98 in 10.0 mi WSW 4.6 mph - N/A   Clear
10:56 AM 55.9 °F - 32.0 °F 40% 29.99 in 10.0 mi Calm Calm - N/A   Clear
11:56 AM 60.1 °F - 33.1 °F 36% 29.99 in 10.0 mi Calm Calm - N/A   Clear
12:56 PM 64.0 °F - 35.1 °F 34% 29.98 in 10.0 mi Variable 3.5 mph - N/A   Clear
1:56 PM 64.9 °F - 37.0 °F 36% 29.97 in 10.0 mi Calm Calm - N/A   Clear
2:56 PM 68.0 °F - 37.9 °F 33% 29.95 in 10.0 mi Variable 3.5 mph - N/A   Clear
3:56 PM 69.1 °F - 37.9 °F 32% 29.94 in 10.0 mi Variable 3.5 mph - N/A   Clear
4:56 PM 70.0 °F - 37.0 °F 30% 29.94 in 10.0 mi Variable 3.5 mph - N/A   Clear
5:56 PM 69.1 °F - 37.9 °F 32% 29.95 in 10.0 mi South 6.9 mph - N/A   Clear
6:56 PM 60.1 °F - 39.0 °F 46% 29.96 in 10.0 mi South 5.8 mph - N/A   Clear
8:56 PM 57.0 °F - 39.0 °F 51% 29.99 in 10.0 mi South 4.6 mph - N/A   Clear
9:56 PM 53.1 °F - 39.0 °F 59% 29.99 in 10.0 mi SE 6.9 mph - N/A   Clear
10:56 PM 48.9 °F - 39.9 °F 71% 30.00 in 10.0 mi East 6.9 mph - N/A   Clear
11:56 PM 50.0 °F - 39.9 °F 68% 29.99 in 10.0 mi ESE 6.9 mph - N/A   Clear